Location: Hermaringen
(48.5952°N, 10.2585°E)
Time: 00:11:19
(UTC+00:00)

Altair - Pass Details

Date: 18 February 2026
Orbit: 1502 x 1682 km, 47.2° (Epoch: 9 March)

Event Time Altitude Azimuth Distance (km) Brightness Sun altitude
Rises 09:10:08 0° 287° (WNW) 4,705 9.6 22.1°
Reaches altitude 10° 09:13:12 10° 283° (WNW) 3,742 9.2 22.4°
Maximum altitude 09:22:23 56° 209° (SSW) 1,844 8.5 23.3°
Drops below altitude 10° 09:31:54 10° 135° (SE) 3,870 11.3 24.2°
Sets 09:35:08 0° 131° (SE) 4,876 11.3 24.5°
